Miscellaneous Local Product
Issued by NWS North Platte, NE

Home | Current Version | Previous Version | Text Only | Print | Product List | Glossary On
Versions: 1 2 3 4 5 6 7 8 9 10 11 12 13 14 15 16 17 18 19 20 21 22 23 24 25 26 27 28 29 30 31 32 33 34 35 36 37 38 39 40 41 42 43 44 45 46 47 48 49 50
000
AXUS43 KLBF 210010
MISLBF


WESTERN AND NORTH CENTRAL NEBRASKA HOURLY WEATHER ROUNDUP
NATIONAL WEATHER SERVICE NORTH PLATTE NE
700 PM CDT WED MAY 20 2015

***STATIONS NOT REPORTING VARIABLES SUCH AS SKY/WEATHER OR
PRESSURE ARE PROVIDED BY THE NEBRASKA DEPARTMENT OF
ROADS...RAWS...AND APRS NETWORKS...AND ARE NOT UNDER
NATIONAL WEATHER SERVICE QUALITY CONTROL***

...OBSERVATIONS IN AND NEAR THE EASTERN PANHANDLE OF NEBRASKA...

CITY           SKY/WX    TMP DP  RH WIND       PRES   REMARKS
PINE RIDGE     CLOUDY    46  34  62 CALM      30.29F
CHADRON        CLOUDY    46  34  62 CALM      30.30S
ALLIANCE       CLOUDY    43  34  70 N7        30.29S
SIDNEY         CLOUDY    44  34  67 N8        30.29R
WHITECLAY        N/A     44  33  64 CALM        N/A
BIG SPRINGS      N/A     50  38  64 N3          N/A
$$

...OBSERVATIONS IN NORTH CENTRAL NEBRASKA...

CITY           SKY/WX    TMP DP  RH WIND       PRES   REMARKS
VALENTINE      MOSUNNY   52  34  50 W3        30.27F
THEDFORD       CLOUDY    48  38  68 N5        30.28F
AINSWORTH      CLOUDY    49  38  65 NW3       30.27F
O`NEILL        SUNNY     51  38  61 CALM      30.26F
ORD            CLOUDY    48  39  71 N10       30.26F
BROKEN BOW     CLOUDY    49  39  68 N9        30.27S
BROWNLEE         N/A     51  34  52 N5          N/A
BREWSTER         N/A     49  37  63 S8          N/A
ROSE             N/A     48  40  75 CALM        N/A
NEWPORT          N/A     51  36  57 W7          N/A
COMSTOCK         N/A     50  41  72 N10         N/A
$$

...OBSERVATIONS IN SOUTHWEST NEBRASKA AND FAR NORTHEAST COLORADO...

CITY           SKY/WX    TMP DP  RH WIND       PRES   REMARKS
WRAY           CLOUDY    49  37  63 N7        30.27S
IMPERIAL       CLOUDY    49  36  61 N8        30.27S
OGALLALA       CLOUDY    49  37  64 N10       30.27S
NORTH PLATTE   CLOUDY    49  37  63 N9        30.27S
MCCOOK         CLOUDY    51  38  60 NE9       30.26S
LEXINGTON      CLOUDY    49  41  74 N8        30.27S
PAXTON           N/A     50  40  67 N7          N/A
GOTHENBURG       N/A     49  37  64 N5          N/A
CALLAWAY         N/A     48  42  79 NE10        N/A
$$

...NORTH PLATTE AREA...

CITY           SKY/WX    TMP DP  RH WIND       PRES   REMARKS
AIRPORT        CLOUDY    49  37  63 N9        30.27S
$$

...SOME WEATHER OBSERVATIONS FROM AROUND THE REGION...

CITY           SKY/WX    TMP DP  RH WIND       PRES   REMARKS
DENVER         CLOUDY    42  36  79 NE10      30.26R
LARAMIE        CLOUDY    40  34  79 MISG      30.20S
CHEYENNE       CLOUDY    40  33  76 E7        30.25S
SCOTTSBLUFF    CLOUDY    46  34  62 E8        30.29S
RAPID CITY     MOSUNNY   54  30  40 S3        30.26F
PIERRE         SUNNY     61  28  28 W8        30.21F
WINNER         FAIR      59  34  39 W9        30.24F
SIOUX FALLS    MOSUNNY   59  30  33 W7        30.19F
OMAHA          CLOUDY    50  43  77 N9        30.23S
GRAND ISLAND   CLOUDY    48  40  73 N9        30.27F
KANSAS CITY    CLOUDY    51  47  86 N9        30.17S
WICHITA        CLOUDY    55  45  68 N9        30.19S
HAYS           CLOUDY    54  37  54 N14       30.24S
LIBERAL        CLOUDY    54  43  66 NE13      30.23F
GOODLAND       CLOUDY    48  37  65 NE12      30.26S
$$



USA.gov is the U.S. government's official web portal to all federal, state and local government web resources and services.